Terminal Aerodrome Forecast
Issued by NWS Spokane, WA

Home | Current Version | Previous Version | Text Only | Print | Product List | Glossary On
Versions: 1 2 3 4 5 6 7 8 9 10 11 12 13 14 15 16 17 18 19 20 21 22 23 24 25 26 27 28 29 30 31 32 33 34 35 36 37 38 39 40 41 42 43 44 45 46 47 48 49 50
000
FTUS46 KOTX 242348 AAA
TAFGEG
TAF AMD
KGEG 242348Z 2500/2524 07003KT P6SM -SHSN SCT020 BKN035
      TEMPO 2500/2502 1SM -SHSN BKN020
     FM250200 26005KT P6SM SCT050
     FM250700 VRB03KT P6SM SCT010 BKN200
     FM251400 23005KT 6SM BCFG FEW001 BKN010
     FM251900 23010G18KT P6SM SCT025 BKN200=

USA.gov is the U.S. government's official web portal to all federal, state and local government web resources and services.